Wind_Speed
23 25 26 26 26 25 25 24 23 20 18 17 15 11 10 11 11 13 15 15 16 19 22 23 23 22 22 21 20 19 17 16 14 14 13 14 15 16 17 17 17 17 18
26 27 28 28 28 27 27 26 26 24 22 21 19 17 15 14 14 15 17 17 18 20 22 25 26 25 25 24 23 22 21 19 18 17 16 16 16 16 18 18 18 18 19
31 30 30 30 30 30 29 29 29 28 27 25 23 22 21 20 19 19 19 20 20 21 23 24 26 28 28 27 26 24 23 22 21 21 20 19 18 17 18 19 20 20 20
38 35 33 33 33 33 33 33 33 31 30 29 27 26 25 24 24 23 23 23 23 23 24 25 26 27 29 28 27 26 24 24 24 24 25 24 23 20 20 21 22 22 21
43 40 38 38 37 36 36 37 36 34 33 33 31 30 30 28 27 27 27 27 27 26 26 26 27 27 28 29 28 26 26 26 26 26 28 29 28 25 22 22 23 23 22
50 48 45 44 44 41 39 38 38 37 36 35 35 34 33 31 30 30 29 29 29 28 27 27 27 27 28 29 29 28 29 30 30 30 31 31 32 30 26 24 24 24 23
59 58 54 50 49 48 44 41 40 39 37 36 37 37 35 33 31 31 31 30 30 29 27 27 27 28 29 30 29 29 30 32 34 35 35 34 34 33 31 27 24 24 24
61 60 59 55 54 53 49 46 42 40 38 38 38 38 35 34 34 32 32 32 32 31 29 28 28 29 31 32 33 32 31 33 35 37 37 37 37 36 34 30 26 24 24
55 53 51 52 55 55 53 50 47 43 42 41 41 41 39 35 33 32 33 34 33 32 31 31 30 31 33 35 35 34 33 33 34 35 36 38 39 39 37 33 30 26 24
51 47 43 46 51 52 53 53 51 48 47 46 45 46 45 40 34 30 31 34 34 31 30 32 33 34 35 37 38 37 35 34 33 34 34 35 38 38 37 35 33 29 26
46 44 39 40 47 50 51 53 52 51 51 50 48 46 43 40 35 30 28 29 32 31 30 32 34 36 36 37 38 37 36 36 35 35 33 33 36 37 37 36 35 31 28
41 39 36 36 43 48 49 49 49 49 48 47 44 41 40 37 32 28 26 27 29 31 31 32 35 36 36 37 38 39 39 38 38 37 35 33 36 39 40 38 36 33 30
37 35 34 34 38 40 40 42 41 40 39 39 38 37 36 32 29 28 27 26 28 30 32 33 35 36 38 39 40 41 42 40 38 37 35 34 36 39 41 39 37 35 33
32 31 32 33 33 33 34 36 36 37 37 37 36 35 33 30 28 28 27 28 29 30 31 33 35 37 39 40 42 43 41 39 37 36 35 36 37 39 40 40 39 38 36
28 29 31 32 31 31 31 32 34 36 37 36 35 33 30 29 28 29 29 30 31 31 32 34 36 39 41 42 42 41 42 41 40 39 38 38 38 37 37 39 40 39 37
25 25 27 27 26 26 28 30 31 32 33 32 30 28 27 27 27 27 29 30 30 31 33 35 36 37 38 40 40 39 39 41 41 40 39 39 39 38 38 36 36 38 37
26 25 25 24 24 27 30 32 32 30 28 27 27 28 29 29 28 29 30 31 31 31 33 34 34 34 33 35 37 37 39 40 40 39 38 38 39 38 38 37 36 35 36
28 27 27 26 27 29 30 30 29 27 26 27 28 29 29 29 30 32 33 34 35 35 35 35 34 33 31 29 30 33 35 36 37 38 39 38 38 38 38 37 37 36 35
30 29 29 28 27 25 24 24 25 26 26 27 28 29 30 31 32 33 34 36 38 40 39 39 38 35 33 30 28 28 30 32 33 34 33 33 34 35 35 35 36 37 36
30 27 26 25 25 25 24 23 24 25 26 27 29 30 31 32 33 34 35 37 39 40 41 41 40 38 35 33 30 26 24 25 28 30 30 29 30 30 29 30 32 34 32
21 20 20 21 22 23 23 23 24 25 27 29 30 31 31 32 33 34 35 36 37 38 39 39 39 37 35 34 32 29 25 22 21 24 27 27 26 25 26 27 29 29 28
15 17 18 19 20 21 21 22 23 24 26 27 29 30 31 32 33 33 34 34 34 35 35 35 34 34 33 33 32 31 28 25 21 19 20 22 21 23 24 24 26 27 29
17 18 19 20 20 20 21 21 21 22 23 24 26 29 30 31 31 32 32 32 33 34 34 33 33 32 31 31 32 33 31 30 28 24 20 21 21 19 21 22 22 23 27
19 20 19 19 19 20 19 19 19 19 20 21 23 25 27 28 30 30 30 31 32 33 33 34 34 34 33 32 31 32 33 33 33 31 27 23 23 23 24 25 26 24 24
20 20 20 19 19 19 18 17 17 18 19 20 22 23 25 26 27 27 28 29 31 32 33 34 36 36 37 37 34 33 33 34 36 36 34 32 28 23 23 27 28 29 28
21 20 20 19 17 15 14 13 13 15 17 18 20 21 21 21 22 23 24 26 28 30 31 33 34 36 37 38 37 35 34 34 34 35 37 36 35 32 27 24 26 29 29
Wind_Direction
286 288 289 284 276 268 264 262 258 261 270 278 283 294 309 313 312 310 311 302 282 269 264 263 268 271 273 275 277 275 273 274 275 274 276 278 277 276 276 276 274 273 275
278 282 284 284 280 273 268 265 260 261 267 274 280 288 298 303 303 303 304 303 296 281 270 265 265 267 269 272 275 276 275 272 271 270 270 273 276 275 274 275 274 273 274
270 272 277 280 278 275 271 267 262 261 266 270 274 282 290 295 298 298 297 295 294 290 280 272 269 267 266 268 271 274 275 273 270 269 268 270 273 273 272 273 274 275 275
268 266 269 274 275 272 269 265 261 261 264 266 271 277 283 287 292 294 292 289 287 285 282 277 274 269 265 266 269 272 274 273 272 272 272 271 271 270 270 272 273 273 275
265 264 265 268 270 269 265 262 260 259 261 266 271 276 279 284 290 290 289 286 284 282 280 276 273 269 264 264 266 269 271 273 273 275 274 272 269 268 268 271 272 271 272
264 263 263 264 265 265 262 260 259 258 260 266 271 275 279 284 288 287 284 283 283 281 279 275 272 268 264 262 263 266 269 271 273 275 275 272 269 267 266 269 272 270 269
267 266 264 261 260 261 260 260 259 258 260 264 269 274 279 284 286 285 283 282 280 278 276 272 268 267 265 263 262 264 267 270 272 274 274 271 268 265 263 263 267 268 267
272 270 264 259 256 257 257 258 259 258 259 263 268 274 278 282 285 285 285 283 280 277 274 268 263 262 263 263 263 264 266 269 273 275 272 268 266 263 261 259 260 262 265
279 277 268 258 253 253 254 257 257 257 259 262 268 274 279 280 280 283 283 282 280 276 272 269 263 260 262 263 263 263 264 268 272 275 275 267 262 260 258 257 257 257 261
282 279 269 254 249 250 254 255 256 255 257 260 266 272 277 278 277 275 277 278 279 276 272 269 267 264 262 264 264 264 265 266 269 273 275 268 261 257 255 255 255 254 257
280 278 270 256 248 248 252 254 254 255 255 258 262 268 272 274 274 271 269 272 276 278 274 269 267 266 264 264 265 265 266 266 268 271 272 267 260 255 253 254 253 252 255
274 272 266 257 249 249 252 253 253 253 254 257 260 263 267 270 269 266 265 268 273 275 275 271 269 268 268 268 267 266 267 267 269 269 268 263 257 253 251 252 252 252 255
269 262 257 253 251 250 247 245 245 247 251 255 259 263 266 266 264 264 265 267 271 274 275 274 271 270 271 272 271 270 269 269 269 268 264 258 255 252 251 250 252 252 252
265 257 251 247 245 241 238 238 240 246 251 254 259 262 264 263 263 264 265 266 267 270 274 276 275 275 276 276 273 273 272 270 267 266 262 256 255 255 255 252 251 249 248
256 253 246 242 238 237 238 241 245 250 251 253 257 260 260 261 262 263 263 264 266 270 273 275 277 278 279 278 276 273 270 268 266 264 261 257 256 256 258 258 253 248 245
247 247 242 238 237 238 239 242 246 250 252 252 253 254 256 258 260 261 262 265 269 273 275 277 278 278 278 276 273 272 268 266 265 264 259 258 257 256 258 260 260 251 246
239 240 241 240 241 243 245 246 248 248 247 249 252 255 256 257 261 263 264 265 268 272 275 279 281 283 281 279 275 271 267 264 261 260 258 256 257 257 258 260 264 258 250
233 234 236 239 243 248 248 246 244 245 248 252 256 258 259 262 264 265 266 267 269 270 273 277 281 283 284 286 282 272 266 262 260 259 258 257 256 257 259 261 261 257 248
227 231 234 236 241 246 246 245 247 250 254 257 259 261 263 265 266 267 268 269 270 270 271 274 277 280 282 285 287 278 266 260 256 255 256 257 257 257 258 258 256 251 244
228 232 236 240 243 245 246 248 251 254 258 262 264 266 267 268 270 270 270 270 270 270 270 271 274 277 279 281 286 288 279 265 256 249 250 253 255 254 253 252 248 243 237
241 244 248 252 251 251 253 257 259 262 265 268 269 270 271 272 273 273 273 272 272 272 272 273 275 276 277 277 279 283 286 279 269 255 250 248 249 246 247 246 242 235 228
257 254 256 259 260 260 262 263 264 266 267 269 271 272 273 274 274 274 275 276 276 276 276 277 277 277 275 273 272 274 277 276 274 269 258 246 246 242 239 240 237 234 231
269 267 268 265 265 267 267 264 263 265 267 268 270 272 274 275 277 278 279 279 279 278 278 280 280 279 277 273 270 268 267 267 266 266 265 247 237 237 235 234 236 236 231
272 268 270 272 272 268 261 257 259 263 266 270 273 275 276 278 280 282 283 283 283 281 281 281 281 280 277 274 270 267 265 263 263 263 261 251 237 232 235 237 237 237 233
273 272 270 270 268 264 259 258 262 266 269 273 276 278 279 281 283 285 286 285 284 284 283 283 283 283 281 277 273 267 262 260 259 257 258 256 249 240 236 233 230 229 230
270 269 267 262 260 260 259 260 263 268 273 276 279 281 284 286 288 289 289 288 288 287 285 284 282 280 278 276 274 270 265 261 260 259 257 257 257 254 250 240 230 221 222
Height
5901 5900 5900 5898 5897 5897 5898 5898 5897 5896 5896 5895 5894 5892 5890 5888 5886 5883 5882 5881 5880 5879 5878 5878 5877 5877 5877 5877 5877 5876 5875 5874 5873 5873 5873 5874 5874 5873 5873 5872 5873 5872 5871
5896 5895 5894 5893 5893 5892 5892 5892 5892 5891 5891 5890 5889 5888 5886 5884 5882 5880 5878 5877 5875 5874 5874 5873 5872 5872 5872 5872 5872 5872 5871 5870 5870 5869 5869 5869 5869 5869 5869 5869 5868 5868 5868
5888 5887 5887 5887 5887 5887 5886 5886 5886 5886 5886 5885 5884 5883 5881 5879 5878 5876 5875 5873 5871 5869 5868 5868 5868 5867 5866 5866 5867 5867 5867 5866 5866 5865 5865 5864 5864 5864 5865 5864 5864 5864 5864
5878 5878 5878 5879 5879 5880 5880 5879 5880 5880 5880 5879 5878 5877 5876 5875 5873 5872 5870 5868 5866 5864 5862 5862 5861 5861 5861 5861 5861 5861 5861 5861 5861 5861 5860 5860 5860 5860 5859 5859 5859 5859 5859
5868 5868 5869 5869 5869 5871 5871 5871 5872 5873 5873 5872 5872 5871 5870 5869 5868 5866 5865 5862 5860 5858 5856 5855 5854 5855 5855 5855 5855 5855 5856 5856 5856 5855 5855 5854 5855 5855 5854 5854 5853 5853 5853
5859 5858 5858 5859 5859 5860 5861 5862 5864 5864 5865 5865 5865 5864 5863 5862 5860 5859 5857 5855 5853 5851 5849 5848 5848 5847 5848 5848 5849 5849 5849 5849 5849 5849 5848 5848 5848 5849 5849 5848 5847 5847 5847
5850 5848 5848 5847 5848 5849 5850 5852 5854 5856 5856 5856 5856 5856 5855 5854 5852 5850 5849 5847 5846 5844 5842 5841 5841 5841 5841 5841 5841 5842 5842 5842 5842 5842 5841 5840 5840 5841 5842 5842 5841 5841 5841
5838 5836 5835 5835 5835 5836 5839 5841 5844 5846 5847 5847 5847 5848 5849 5847 5844 5843 5841 5839 5838 5836 5835 5834 5833 5833 5833 5833 5834 5834 5834 5835 5834 5834 5833 5832 5832 5833 5834 5835 5835 5834 5835
5825 5822 5820 5820 5822 5825 5828 5830 5833 5836 5838 5838 5838 5839 5840 5840 5837 5836 5833 5831 5830 5829 5828 5827 5826 5825 5825 5826 5826 5826 5825 5825 5825 5825 5824 5824 5823 5824 5826 5827 5827 5827 5827
5812 5809 5806 5806 5809 5814 5817 5820 5822 5825 5828 5829 5830 5829 5830 5829 5829 5828 5826 5823 5821 5820 5819 5818 5818 5817 5817 5817 5818 5817 5816 5815 5815 5815 5814 5814 5815 5815 5817 5818 5819 5820 5820
5799 5798 5796 5796 5799 5803 5806 5809 5812 5814 5817 5820 5822 5822 5821 5820 5819 5819 5818 5816 5813 5811 5810 5809 5808 5807 5807 5808 5808 5807 5807 5806 5806 5805 5805 5805 5806 5807 5809 5810 5811 5813 5813
5787 5787 5787 5789 5791 5794 5797 5800 5802 5805 5807 5810 5812 5813 5813 5812 5810 5809 5809 5808 5806 5803 5802 5801 5800 5799 5799 5799 5798 5798 5797 5797 5797 5796 5796 5796 5797 5798 5800 5802 5803 5804 5806
5776 5777 5778 5779 5781 5784 5787 5790 5793 5796 5798 5801 5802 5803 5804 5803 5802 5801 5801 5800 5798 5796 5794 5793 5792 5791 5790 5789 5789 5788 5787 5786 5787 5787 5786 5786 5787 5789 5791 5793 5794 5796 5798
5766 5766 5768 5770 5772 5775 5778 5782 5785 5787 5790 5792 5793 5794 5794 5794 5794 5793 5793 5793 5791 5790 5788 5785 5783 5782 5780 5779 5778 5778 5776 5776 5777 5777 5777 5777 5777 5779 5780 5782 5784 5786 5789
5756 5758 5759 5761 5763 5766 5770 5773 5777 5779 5782 5783 5784 5785 5785 5785 5785 5785 5784 5785 5784 5782 5780 5778 5775 5773 5772 5770 5769 5768 5766 5766 5766 5767 5767 5767 5767 5768 5770 5772 5774 5776 5779
5747 5749 5751 5753 5755 5759 5763 5766 5769 5771 5773 5775 5775 5775 5776 5776 5775 5775 5776 5776 5775 5773 5771 5769 5767 5765 5762 5760 5758 5757 5755 5754 5756 5756 5757 5758 5758 5759 5761 5762 5764 5766 5769
5740 5742 5743 5746 5750 5753 5756 5759 5761 5763 5764 5765 5766 5767 5767 5767 5766 5766 5766 5766 5765 5764 5762 5760 5758 5756 5753 5750 5747 5746 5744 5744 5745 5746 5746 5748 5749 5750 5751 5754 5755 5757 5759
5732 5734 5736 5739 5743 5746 5748 5749 5752 5754 5755 5756 5757 5758 5758 5758 5758 5758 5757 5757 5756 5755 5754 5752 5749 5747 5745 5742 5738 5736 5735 5734 5734 5735 5736 5737 5739 5741 5742 5744 5746 5748 5751
5724 5726 5729 5733 5736 5738 5740 5742 5745 5746 5747 5748 5749 5749 5749 5749 5749 5749 5748 5747 5747 5747 5745 5743 5740 5738 5736 5734 5732 5729 5726 5725 5725 5725 5726 5728 5729 5731 5733 5735 5737 5739 5742
5717 5720 5723 5726 5729 5732 5734 5735 5737 5738 5739 5740 5741 5740 5740 5741 5740 5740 5739 5739 5738 5737 5736 5734 5732 5730 5729 5728 5725 5722 5719 5717 5716 5717 5717 5719 5720 5722 5724 5726 5729 5732 5734
5714 5716 5719 5721 5724 5725 5727 5728 5730 5730 5731 5732 5732 5732 5732 5732 5732 5732 5731 5730 5729 5728 5727 5725 5723 5722 5721 5720 5719 5716 5714 5711 5709 5709 5710 5711 5712 5714 5716 5718 5721 5724 5727
5710 5712 5714 5717 5719 5720 5721 5722 5723 5723 5724 5724 5724 5724 5724 5723 5723 5723 5723 5721 5720 5719 5718 5715 5714 5712 5711 5711 5710 5710 5708 5706 5703 5703 5703 5704 5705 5706 5708 5711 5713 5716 5720
5706 5708 5710 5712 5713 5714 5715 5716 5716 5717 5717 5717 5717 5717 5716 5716 5715 5714 5713 5712 5711 5709 5708 5706 5704 5703 5702 5702 5702 5702 5701 5700 5698 5697 5697 5697 5698 5699 5701 5703 5706 5709 5712
5701 5703 5705 5705 5707 5708 5709 5710 5711 5711 5711 5711 5711 5710 5710 5709 5708 5706 5705 5704 5702 5701 5699 5697 5695 5693 5693 5693 5693 5693 5693 5693 5692 5691 5691 5691 5691 5693 5695 5697 5699 5702 5705
5696 5698 5699 5701 5702 5702 5703 5704 5705 5706 5705 5705 5704 5704 5703 5702 5700 5698 5697 5696 5694 5691 5689 5687 5685 5684 5683 5683 5684 5684 5684 5684 5684 5683 5683 5684 5685 5686 5688 5689 5691 5694 5697
5691 5693 5694 5696 5697 5697 5698 5699 5700 5700 5700 5699 5699 5698 5697 5696 5694 5692 5691 5688 5685 5682 5680 5677 5676 5675 5673 5673 5673 5673 5674 5675 5675 5674 5674 5676 5677 5679 5680 5682 5683 5685 5689